Overview Statistics Trail Chart Weather Telemetry Raw packets
 

This is the latest recevied weather packets stored in our database for station/object KB0BS-13. If no packets are shown the sender has not sent any weather packets the latest 10 day(s).

<< 40 41 42 43 44 45 46 >>
Time Temp. Humidity Pressure Rain* Wind** Luminosity Snow
1777421325 6.11° C 86% 1012.9 hPa 0 mm - 17 W/m² -
1777421022 6.11° C 85% 1013 hPa 0 mm - 12 W/m² -
1777420718 6.11° C 84% 1013 hPa 0 mm - 14 W/m² -
1777420414 6.67° C 84% 1012.6 hPa 0 mm - 24 W/m² -
1777420111 6.67° C 84% 1012.4 hPa 0 mm - 22 W/m² -
1777419807 6.67° C 86% 1012.5 hPa 0 mm - 30 W/m² -
1777419505 6.67° C 85% 1012.5 hPa 0 mm - 26 W/m² -
1777419203 6.67° C 85% 1012.6 hPa 0 mm - 23 W/m² -
1777418900 6.67° C 86% 1012.3 hPa 0 mm - 24 W/m² -
1777418596 6.67° C 85% 1012.6 hPa 0 mm - 23 W/m² -
1777418292 6.67° C 84% 1012.4 hPa 0 mm - 36 W/m² -
1777417988 6.67° C 85% 1012.5 hPa 0 mm - 24 W/m² -
1777417684 6.67° C 86% 1012.5 hPa 0 mm - 33 W/m² -
1777417379 6.67° C 84% 1012.3 hPa 0 mm - 27 W/m² -
1777417076 6.67° C 85% 1012.2 hPa 0 mm - 32 W/m² -
1777416772 6.67° C 87% 1012.1 hPa 0 mm - 40 W/m² -
1777416468 6.67° C 87% 1012.2 hPa 0 mm - 47 W/m² -
1777416164 6.67° C 88% 1012.2 hPa 0 mm - 38 W/m² -
1777415864 6.67° C 88% 1011.9 hPa 0 mm - 42 W/m² -
1777415559 7.22° C 87% 1011.8 hPa 0 mm - 48 W/m² -
1777415256 7.22° C 87% 1011.7 hPa 0 mm - 89 W/m² -
1777414951 7.22° C 87% 1011.5 hPa 0 mm - 72 W/m² -
1777414650 7.22° C 88% 1011.1 hPa 0 mm - 77 W/m² -
1777414346 7.78° C 88% 1011.1 hPa 0 mm - 73 W/m² -
1777414040 8.33° C 87% 1011.1 hPa 0 mm - 71 W/m² -

* Rain latest hour (hover to see other rain measurements)
** Current wind speed in m/s (hover to see current wind gust speed)